K4WOF-3 Weather Reports


Display with metric or nautical units.
time (UTC)temp
F
wind
direction
speed
MPH
gust
MPH
rain 1hr
in
rain 24hr
in
rain mn
in
humidity
%
barometer
mb
20191014152125 85 61 2.0 7.0 0.00 0.00 0.00 75 1018.8
20191014151126 84 86 3.0 7.0 0.00 0.00 0.00 77 1018.7
20191014150132 84 38 3.0 5.0 0.00 0.00 0.00 78 1018.8
20191014145132 83 62 2.0 4.0 0.00 0.00 0.00 78 1018.8
20191014144133 83 74 2.0 5.0 0.00 0.00 0.00 79 1018.8
20191014143116 82 65 0.0 5.0 0.00 0.00 0.00 80 1018.9
20191014142123 82 62 2.0 5.0 0.00 0.00 0.00 78 1018.9
20191014141125 82 186 0.0 2.0 0.00 0.00 0.00 80 1018.9
20191014140128 82 186 1.0 2.0 0.00 0.00 0.00 79 1018.8
20191014135129 82 200 0.0 3.0 0.00 0.00 0.00 80 1018.6
20191014134132 81 215 0.0 3.0 0.00 0.00 0.00 81 1018.4
20191014133133 81 215 0.0 2.0 0.00 0.00 0.00 82 1018.2
20191014132134 80 250 0.0 1.0 0.00 0.00 0.00 83 1018.2
20191014131136 79 250 0.0 1.0 0.00 0.00 0.00 84 1018.2
20191014130122 79 250 0.0 1.0 0.00 0.00 0.00 85 1018.2
20191014125122 78 252 0.0 1.0 0.00 0.00 0.00 86 1018.1
20191014124123 77 252 0.0 1.0 0.00 0.00 0.00 87 1017.9
20191014123128 76 252 0.0 1.0 0.00 0.00 0.00 87 1017.9
20191014122132 76 257 0.0 1.0 0.00 0.00 0.00 88 1017.7
20191014121133 76 223 0.0 1.0 0.00 0.00 0.00 88 1017.6
20191014120135 75 223 0.0 0.0 0.00 0.00 0.00 87 1017.6
20191014115135 75 223 0.0 1.0 0.00 0.00 0.00 87 1017.6
20191014114134 74 223 0.0 0.0 0.00 0.00 0.00 88 1017.6
20191014113121 74 223 0.0 0.0 0.00 0.00 0.00 87 1017.5
20191014112120 74 223 0.0 1.0 0.00 0.00 0.00 87 1017.5
20191014111121 74 223 0.0 0.0 0.00 0.00 0.00 87 1017.4
20191014110124 75 223 0.0 0.0 0.00 0.00 0.00 87 1017.3
20191014105132 75 223 0.0 1.0 0.00 0.00 0.00 87 1017.3
20191014104136 75 223 0.0 1.0 0.00 0.00 0.00 87 1017.3
20191014103140 75 223 0.0 0.0 0.00 0.00 0.00 87 1017.2
20191014102118 75 223 0.0 0.0 0.00 0.00 0.00 87 1017.1
20191014101126 75 223 0.0 1.0 0.00 0.00 0.00 87 1017.0
20191014100128 75 223 0.0 0.0 0.00 0.00 0.00 87 1016.8
20191014095132 76 223 0.0 0.0 0.00 0.00 0.00 86 1016.7
20191014094132 76 223 0.0 1.0 0.00 0.00 0.00 87 1016.7
20191014093138 76 210 0.0 0.0 0.00 0.00 0.00 86 1016.6
20191014092138 76 210 0.0 0.0 0.00 0.00 0.00 86 1016.5
20191014091118 76 210 0.0 1.0 0.00 0.00 0.00 86 1016.5
20191014090121 76 204 0.0 0.0 0.00 0.00 0.00 85 1016.5
20191014085125 76 204 0.0 1.0 0.00 0.00 0.00 85 1016.6
20191014084125 77 204 0.0 1.0 0.00 0.00 0.00 85 1016.4
20191014083128 77 201 0.0 0.0 0.00 0.00 0.00 84 1016.4
20191014082129 77 201 0.0 0.0 0.00 0.00 0.00 84 1016.4
20191014081133 77 201 0.0 1.0 0.00 0.00 0.00 84 1016.4
20191014080136 77 202 0.0 0.0 0.00 0.00 0.00 84 1016.4
20191014075136 78 202 0.0 1.0 0.00 0.00 0.00 83 1016.5
20191014074135 78 201 0.0 1.0 0.00 0.00 0.00 84 1016.6
20191014073120 78 201 0.0 2.0 0.00 0.00 0.00 83 1016.8
20191014072121 78 213 0.0 1.0 0.00 0.00 0.00 83 1016.7
20191014071122 78 207 0.0 1.0 0.00 0.00 0.00 83 1016.7
20191014070127 78 205 0.0 0.0 0.00 0.00 0.00 83 1016.7
20191014065126 78 205 0.0 3.0 0.00 0.00 0.00 83 1016.8
20191014064131 78 192 0.0 1.0 0.00 0.00 0.00 82 1016.8
20191014063137 79 192 1.0 3.0 0.00 0.00 0.00 82 1016.9
20191014062116 78 203 1.0 3.0 0.00 0.00 0.00 82 1017.0
20191014061120 78 184 0.0 2.0 0.00 0.00 0.00 82 1017.1
20191014060126 78 192 0.0 2.0 0.00 0.00 0.00 82 1017.2
20191014055127 78 108 0.0 2.0 0.00 0.00 0.00 81 1017.4
20191014054128 79 93 0.0 2.0 0.00 0.00 0.00 81 1017.3
20191014053129 79 185 0.0 3.0 0.00 0.00 0.00 81 1017.4
20191014052133 78 170 0.0 4.0 0.00 0.00 0.00 81 1017.3
20191014051135 78 175 0.0 3.0 0.00 0.00 0.00 81 1017.4
20191014050136 78 163 0.0 2.0 0.00 0.00 0.00 81 1017.5
20191014045137 78 138 0.0 3.0 0.00 0.00 0.00 80 1017.5
20191014044121 78 148 1.0 3.0 0.00 0.00 0.00 81 1017.4
20191014043124 78 165 1.0 2.0 0.00 0.00 0.00 80 1017.5
20191014042124 79 188 0.0 4.0 0.00 0.00 0.00 79 1017.5
20191014041127 78 147 1.0 6.0 0.00 0.00 0.00 80 1017.6
20191014040134 79 112 0.0 4.0 0.00 0.00 0.00 79 1017.5
20191014035131 79 163 2.0 4.0 0.00 0.00 0.00 80 1017.6
20191014034132 79 151 0.0 3.0 0.00 0.00 0.00 80 1017.7
20191014033134 79 135 2.0 3.0 0.00 0.00 0.00 79 1017.6
20191014032118 79 106 1.0 5.0 0.00 0.00 0.00 78 1017.6
20191014031121 79 113 1.0 5.0 0.00 0.00 0.00 79 1017.7
20191014030124 79 98 0.0 5.0 0.00 0.00 0.00 79 1017.7
20191014025128 79 99 2.0 6.0 0.00 0.00 0.00 79 1017.7
20191014024128 79 96 2.0 5.0 0.00 0.00 0.00 79 1017.7
20191014023135 79 167 1.0 5.0 0.00 0.00 0.00 78 1017.7
20191014022134 79 165 2.0 7.0 0.00 0.00 0.00 78 1017.7
20191014021135 80 121 2.0 7.0 0.00 0.00 0.00 79 1017.7
20191014020138 79 102 1.0 4.0 0.00 0.00 0.00 78 1017.7
20191014015120 80 170 0.0 6.0 0.00 0.00 0.00 78 1017.5
20191014014121 79 119 1.0 4.0 0.00 0.00 0.00 79 1017.6
20191014013123 79 145 2.0 3.0 0.00 0.00 0.00 79 1017.5
20191014012122 79 171 1.0 4.0 0.00 0.00 0.00 79 1017.4
20191014011130 79 96 1.0 4.0 0.00 0.00 0.00 78 1017.4
20191014010133 79 134 0.0 6.0 0.00 0.00 0.00 78 1017.3
20191014005120 79 119 2.0 5.0 0.00 0.00 0.00 77 1017.2
20191014004123 79 142 2.0 5.0 0.00 0.00 0.00 78 1017.2
20191014003130 79 95 1.0 4.0 0.00 0.00 0.00 77 1017.0
20191014001127 79 106 1.0 5.0 0.00 0.00 0.00 76 1017.0
20191014000130 80 92 2.0 5.0 0.00 0.00 0.00 76 1016.9
20191013235131 80 121 2.0 5.0 0.00 0.00 0.00 76 1016.8
20191013234131 80 104 1.0 4.0 0.00 0.00 0.00 76 1016.9
20191013233137 80 113 1.0 4.0 0.00 0.00 0.00 75 1016.9
20191013232116 80 53 1.0 4.0 0.00 0.00 0.00 74 1016.8
20191013231121 80 106 1.0 4.0 0.00 0.00 0.00 73 1016.7
20191013230123 80 144 1.0 3.0 0.00 0.00 0.00 73 1016.6
20191013225127 80 77 1.0 4.0 0.00 0.00 0.00 72 1016.6
20191013224132 80 86 1.0 4.0 0.00 0.00 0.00 72 1016.6
20191013223135 81 76 2.0 6.0 0.00 0.00 0.00 72 1016.5
20191013222136 81 84 1.0 5.0 0.00 0.00 0.00 72 1016.6
20191013221121 82 54 0.0 5.0 0.00 0.00 0.00 71 1016.5
20191013220124 82 38 1.0 4.0 0.00 0.00 0.00 69 1016.5
20191013215126 83 112 1.0 6.0 0.00 0.00 0.00 70 1016.4
20191013214126 83 96 2.0 8.0 0.00 0.00 0.00 70 1016.4
20191013213133 83 76 2.0 7.0 0.00 0.00 0.00 70 1016.3
20191013212133 84 90 2.0 5.0 0.00 0.00 0.00 70 1016.3
20191013211134 84 106 2.0 4.0 0.00 0.00 0.00 70 1016.2
20191013210136 84 93 2.0 7.0 0.00 0.00 0.00 70 1016.2
20191013205122 84 65 2.0 5.0 0.00 0.00 0.00 69 1016.2
20191013204123 84 138 2.0 6.0 0.00 0.00 0.00 69 1016.2
20191013203128 84 113 4.0 7.0 0.00 0.00 0.00 69 1016.2
20191013202127 85 80 3.0 7.0 0.00 0.00 0.00 67 1016.3
20191013201127 84 90 3.0 6.0 0.00 0.00 0.00 69 1016.3
20191013200134 85 98 3.0 6.0 0.00 0.00 0.00 68 1016.5
20191013195138 84 90 2.0 8.0 0.00 0.00 0.00 70 1016.5
20191013194136 84 72 4.0 8.0 0.00 0.00 0.00 70 1016.6
20191013193119 83 90 3.0 5.0 0.00 0.00 0.00 73 1016.6
20191013192124 83 82 2.0 6.0 0.00 0.00 0.00 73 1016.6
20191013191125 83 92 1.0 9.0 0.00 0.00 0.00 70 1016.7
20191013190128 84 82 4.0 8.0 0.00 0.00 0.00 68 1016.6
20191013185128 84 66 3.0 9.0 0.00 0.00 0.00 69 1016.7
20191013184134 84 93 5.0 8.0 0.00 0.00 0.00 69 1016.8
20191013183120 84 88 3.0 8.0 0.00 0.00 0.00 69 1016.8
20191013182119 85 78 4.0 8.0 0.00 0.00 0.00 69 1016.9
20191013181120 85 78 3.0 6.0 0.00 0.00 0.00 69 1016.9
20191013180130 85 66 4.0 9.0 0.00 0.00 0.00 68 1016.9
20191013175129 85 98 4.0 6.0 0.00 0.00 0.00 69 1017.0
20191013174131 84 105 2.0 7.0 0.00 0.00 0.00 71 1017.2
20191013173133 84 75 1.0 8.0 0.00 0.00 0.00 70 1017.3
20191013172136 84 113 3.0 8.0 0.00 0.00 0.00 69 1017.5
20191013171137 85 117 3.0 5.0 0.00 0.00 0.00 67 1017.6
20191013170120 85 112 3.0 7.0 0.00 0.00 0.00 67 1017.6
20191013165118 86 55 2.0 8.0 0.00 0.00 0.00 67 1017.7
20191013164124 86 102 3.0 5.0 0.00 0.00 0.00 66 1017.8
20191013163126 85 114 1.0 5.0 0.00 0.00 0.00 67 1017.8
20191013162127 85 81 3.0 6.0 0.00 0.00 0.00 66 1017.9
20191013161131 85 90 3.0 6.0 0.00 0.00 0.00 66 1018.0
20191013160134 85 56 3.0 6.0 0.00 0.00 0.00 66 1018.0
20191013155135 85 76 2.0 6.0 0.00 0.00 0.00 65 1018.0
20191013154136 85 125 1.0 5.0 0.00 0.00 0.00 66 1017.9
20191013153138 85 95 4.0 5.0 0.00 0.00 0.00 65 1017.9